YO4CIL-MG Weather Reports


time (UTC)temp
C
wind
direction
speed
KPH
gust
KPH
rain 1hr
cm
rain 24hr
cm
rain mn
cm
humidity
%
barometer
mb
20260506180525 13 0.0 0.0 0.00 0.00 0.00 74 1017.5
20260506175525 13 0.0 0.0 0.00 0.00 0.00 74 1017.5
20260506174525 13 0.0 0.0 0.00 0.00 0.00 73 1017.4
20260506173525 13 0.0 0.0 0.00 0.00 0.00 73 1017.2
20260506172525 13 0.0 0.0 0.00 0.00 0.00 72 1017.2
20260506171526 13 0.0 0.0 0.00 0.00 0.00 72 1017.1
20260506170525 14 0.0 0.0 0.00 0.00 0.00 70 1017.1
20260506165525 15 0.0 0.0 0.00 0.00 0.00 70 1017.0
20260506164525 15 0.0 0.0 0.00 0.00 0.00 68 1017.1
20260506163525 15 0.0 0.0 0.00 0.00 0.00 67 1017.2
20260506162525 16 0.0 0.0 0.00 0.00 0.00 64 1017.1
20260506161525 18 0.0 0.0 0.00 0.00 0.00 60 1017.2
20260506160525 19 0.0 0.0 0.00 0.00 0.00 57 1017.2
20260506155525 17 0.0 0.0 0.00 0.00 0.00 60 1017.2
20260506154525 17 0.0 0.0 0.00 0.00 0.00 63 1017.3
20260506153525 16 0.0 0.0 0.00 0.00 0.00 64 1017.2
20260506152525 16 0.0 0.0 0.00 0.00 0.00 64 1017.3
20260506151525 16 0.0 0.0 0.00 0.00 0.00 63 1017.4
20260506150525 17 0.0 0.0 0.00 0.00 0.00 63 1017.4
20260506145525 17 0.0 0.0 0.00 0.00 0.00 63 1017.5
20260506144525 17 0.0 0.0 0.00 0.00 0.00 62 1017.4
20260506143525 17 0.0 0.0 0.00 0.00 0.00 63 1017.3
20260506142525 16 0.0 0.0 0.00 0.00 0.00 64 1017.3
20260506140525 16 0.0 0.0 0.00 0.00 0.00 64 1017.5
20260506135525 16 0.0 0.0 0.00 0.00 0.00 64 1017.5
20260506134525 16 0.0 0.0 0.00 0.00 0.00 64 1017.6
20260506133525 16 0.0 0.0 0.00 0.00 0.00 64 1017.6
20260506132525 16 0.0 0.0 0.00 0.00 0.00 64 1017.5
20260506131525 16 0.0 0.0 0.00 0.00 0.00 64 1017.6
20260506130525 16 0.0 0.0 0.00 0.00 0.00 64 1017.5
20260506125525 16 0.0 0.0 0.00 0.00 0.00 64 1017.5
20260506124525 16 0.0 0.0 0.00 0.00 0.00 65 1017.6
20260506123525 16 0.0 0.0 0.00 0.00 0.00 64 1017.5
20260506122525 16 0.0 0.0 0.00 0.00 0.00 64 1017.6
20260506121525 16 0.0 0.0 0.00 0.00 0.00 64 1017.8
20260506120525 16 0.0 0.0 0.00 0.00 0.00 64 1017.9
20260506115525 16 0.0 0.0 0.00 0.00 0.00 64 1017.9
20260506114525 16 0.0 0.0 0.00 0.00 0.00 65 1017.9
20260506113525 16 0.0 0.0 0.00 0.00 0.00 64 1018.0
20260506112525 16 0.0 0.0 0.00 0.00 0.00 64 1018.1
20260506111525 16 0.0 0.0 0.00 0.00 0.00 65 1018.2
20260506110525 16 0.0 0.0 0.00 0.00 0.00 65 1018.4
20260506105525 16 0.0 0.0 0.00 0.00 0.00 65 1018.4
20260506104525 16 0.0 0.0 0.00 0.00 0.00 64 1018.4
20260506103525 16 0.0 0.0 0.00 0.00 0.00 63 1018.3
20260506102525 16 0.0 0.0 0.00 0.00 0.00 64 1018.3
20260506101525 16 0.0 0.0 0.00 0.00 0.00 64 1018.4
20260506100525 16 0.0 0.0 0.00 0.00 0.00 66 1018.5
20260506095525 16 0.0 0.0 0.00 0.00 0.00 67 1018.4
20260506094525 16 0.0 0.0 0.00 0.00 0.00 66 1018.4
20260506093525 16 0.0 0.0 0.00 0.00 0.00 66 1018.5
20260506092525 16 0.0 0.0 0.00 0.00 0.00 67 1018.4
20260506091525 16 0.0 0.0 0.00 0.00 0.00 67 1018.4
20260506090525 16 0.0 0.0 0.00 0.00 0.00 67 1018.3
20260506085525 16 0.0 0.0 0.00 0.00 0.00 66 1018.4
20260506084525 16 0.0 0.0 0.00 0.00 0.00 67 1018.2
20260506083525 16 0.0 0.0 0.00 0.00 0.00 68 1018.1
20260506082525 16 0.0 0.0 0.00 0.00 0.00 69 1018.0
20260506081525 16 0.0 0.0 0.00 0.00 0.00 68 1017.9
20260506080525 16 0.0 0.0 0.00 0.00 0.00 68 1018.0
20260506073525 15 0.0 0.0 0.00 0.00 0.00 70 1017.9
20260506072525 15 0.0 0.0 0.00 0.00 0.00 71 1017.9
20260506071525 15 0.0 0.0 0.00 0.00 0.00 71 1017.8
20260506070525 15 0.0 0.0 0.00 0.00 0.00 72 1017.6
20260506061525 14 0.0 0.0 0.00 0.00 0.00 68 1017.5
20260506060525 13 0.0 0.0 0.00 0.00 0.00 67 1017.5
20260506050525 12 0.0 0.0 0.00 0.00 0.00 61 1017.1
20260506044525 11 0.0 0.0 0.00 0.00 0.00 62 1017.0
20260506043525 11 0.0 0.0 0.00 0.00 0.00 64 1016.9
20260506042525 11 0.0 0.0 0.00 0.00 0.00 64 1016.8
20260506041525 10 0.0 0.0 0.00 0.00 0.00 63 1016.7
20260506040525 10 0.0 0.0 0.00 0.00 0.00 63 1016.6
20260506035525 9 0.0 0.0 0.00 0.00 0.00 64 1016.6
20260506034525 8 0.0 0.0 0.00 0.00 0.00 64 1016.6
20260506033525 8 0.0 0.0 0.00 0.00 0.00 65 1016.4
20260506032525 8 0.0 0.0 0.00 0.00 0.00 65 1016.3
20260506031525 8 0.0 0.0 0.00 0.00 0.00 63 1016.3
20260506030525 8 0.0 0.0 0.00 0.00 0.00 63 1016.1
20260506025525 8 0.0 0.0 0.00 0.00 0.00 65 1016.0
20260506024525 7 0.0 0.0 0.00 0.00 0.00 65 1015.8
20260506023525 8 0.0 0.0 0.00 0.00 0.00 64 1015.7
20260506022525 7 0.0 0.0 0.00 0.00 0.00 65 1015.7
20260506021525 8 0.0 0.0 0.00 0.00 0.00 65 1015.6
20260506020525 8 0.0 0.0 0.00 0.00 0.00 64 1015.6
20260506015525 8 0.0 0.0 0.00 0.00 0.00 64 1015.6
20260506014525 8 0.0 0.0 0.00 0.00 0.00 64 1015.5
20260506013525 8 0.0 0.0 0.00 0.00 0.00 65 1015.5
20260506012525 8 0.0 0.0 0.00 0.00 0.00 66 1015.6
20260506011525 7 0.0 0.0 0.00 0.00 0.00 67 1015.7
20260506010525 8 0.0 0.0 0.00 0.00 0.00 67 1015.6
20260506005525 8 0.0 0.0 0.00 0.00 0.00 68 1015.8
20260506004524 8 0.0 0.0 0.00 0.00 0.00 68 1015.7
20260506003525 8 0.0 0.0 0.00 0.00 0.00 68 1015.7
20260506002524 8 0.0 0.0 0.00 0.00 0.00 69 1015.8
20260506001525 8 0.0 0.0 0.00 0.00 0.00 69 1015.8
20260506000525 8 0.0 0.0 0.00 0.00 0.00 69 1015.9
20260505235524 8 0.0 0.0 0.00 0.00 0.00 70 1015.9
20260505234524 8 0.0 0.0 0.00 0.00 0.00 70 1015.9
20260505233525 8 0.0 0.0 0.00 0.00 0.00 70 1016.0
20260505232525 8 0.0 0.0 0.00 0.00 0.00 70 1016.0
20260505231525 8 0.0 0.0 0.00 0.00 0.00 70 1016.2
20260505230525 8 0.0 0.0 0.00 0.00 0.00 70 1016.2
20260505225524 8 0.0 0.0 0.00 0.00 0.00 71 1016.2
20260505224525 8 0.0 0.0 0.00 0.00 0.00 70 1016.4
20260505223525 9 0.0 0.0 0.00 0.00 0.00 70 1016.4
20260505222525 9 0.0 0.0 0.00 0.00 0.00 70 1016.5
20260505221524 9 0.0 0.0 0.00 0.00 0.00 71 1016.6
20260505220524 9 0.0 0.0 0.00 0.00 0.00 71 1016.8
20260505215524 9 0.0 0.0 0.00 0.00 0.00 71 1016.9
20260505214525 10 0.0 0.0 0.00 0.00 0.00 71 1016.9
20260505213525 10 0.0 0.0 0.00 0.00 0.00 70 1016.9
20260505212524 10 0.0 0.0 0.00 0.00 0.00 70 1017.0
20260505211524 10 0.0 0.0 0.00 0.00 0.00 70 1017.1
20260505210525 10 0.0 0.0 0.00 0.00 0.00 70 1017.3
20260505205524 10 0.0 0.0 0.00 0.00 0.00 70 1017.3
20260505204524 10 0.0 0.0 0.00 0.00 0.00 70 1017.3
20260505203524 10 0.0 0.0 0.00 0.00 0.00 69 1017.3
20260505202524 11 0.0 0.0 0.00 0.00 0.00 69 1017.2
20260505201524 11 0.0 0.0 0.00 0.00 0.00 69 1017.2
20260505200524 11 0.0 0.0 0.00 0.00 0.00 68 1017.2
20260505195525 11 0.0 0.0 0.00 0.00 0.00 67 1017.2
20260505194524 11 0.0 0.0 0.00 0.00 0.00 66 1017.2
20260505193524 12 0.0 0.0 0.00 0.00 0.00 66 1017.2
20260505192526 12 0.0 0.0 0.00 0.00 0.00 67 1017.0
20260505191524 12 0.0 0.0 0.00 0.00 0.00 67 1016.9
20260505190528 12 0.0 0.0 0.00 0.00 0.00 68 1016.9
20260505185524 12 0.0 0.0 0.00 0.00 0.00 68 1016.9
20260505184524 12 0.0 0.0 0.00 0.00 0.00 69 1017.0
20260505183524 12 0.0 0.0 0.00 0.00 0.00 68 1017.0
20260505182524 12 0.0 0.0 0.00 0.00 0.00 68 1017.0
20260505181524 13 0.0 0.0 0.00 0.00 0.00 67 1016.8